Hauptseite
METAR-TAF:

METAR-TAF

Flughäfen :

Heeresflugplatz Niederstetten

Niederstetten, Deutschland

Breite: 49-24N, Länge: 009-58E, Höhe: 468 m

Beobachtung

Neuester Wetterbericht von vor 1 Stunde und 7 Minuten, um 03:20 UTC
Wind 6 kt aus West/Nordwest
Temperatur 2°C
Luftfeuchtigkeit 69%
Luftdruck 1020 hPa
Sichtweite 10 km oder mehr
Leicht bewölkt in der Höhe von 4500 ft

METAR: ETHN 250320Z 29006KT 9999 FEW045 02/M03 Q1020 BLU+

Zeit: 05:27 (04:27 UTC)


TAF: fehlend

Wetterbeobachtungen und Prognosen von mehr als 4000 Flughäfen (METAR und TAF Bericht).

Die verfügbaren Stationen werden durch gelbe und rote Markierungen auf der Karte dargestellt.

Führen Sie die Maus auf sie, um den Namen der Station zu sehen.

Darauf klicken, um die Beobachtung von Wetterbeobachtungen und Prognosen zu sehen.

Um die Karte zu ändern : klicken Sie auf den grünen Tasten mit einem schwarzen Kreuz Zum Vergrößern, auf den grünen Button mit einem Gedankenstrich zu verkleinern, oder auf die grünen Pfeile für benachbarte Karten.


METAR-TAF: